• Join FlightAware (Why Join?)
  • Login
  • US Flag 
07:49AM EST


 

Airport Tracker/Info


-or-


 

Live Flight TrackerFlight Track Log ✈ SKW5308 ✈ 15-May-2013 ✈ KBFL - KSFO

Flight Track Log - Related Links

Times and Time Zones

All times are in EDT time to prevent confusion due to time zone crossing. See the SKW5308 flight status page for this flight to view local times or setup timezone preferences in your user account.

Time Position Orientation Groundspeed Altitude Reporting Facility
EDT Latitude Longitude Course Direction KTS MPH feet Rate Location/Type
09:37AM 35.4819 -119.1817 285° West 203 234 4,200  Level Oakland Center
09:38AM 35.5179 -119.2755 280° West  Level FlightAware Approximate
09:38AM 35.4961 -119.2444 286° West 192 221 5,800  Level Oakland Center
09:39AM 35.5306 -119.3643 280° West  Level FlightAware Approximate
09:39AM 35.5086 -119.3083 284° West 193 222 7,400  Level Oakland Center
09:40AM 35.5439 -119.4527 284° West  Level FlightAware Approximate
09:40AM 35.5214 -119.3706 284° West 191 220 9,000  Level Los Angeles Center
09:41AM 35.5572 -119.5321 285° West  Level FlightAware Approximate
09:41AM 35.5344 -119.4353 284° West 194 223 10,400  Level Oakland Center
09:42AM 35.5746 -119.6107 285° West  Level FlightAware Approximate
09:42AM 35.5483 -119.5006 285° West 196 226 12,000  Level Oakland Center
09:43AM 35.5617 -119.5636 285° West 194 223 13,400 1,377 Climbing Oakland Center
09:44AM 35.5736 -119.6267 283° West 192 221 14,800 1,426 Climbing Oakland Center
09:45AM 35.5897 -119.7025 285° West 192 221 16,300 1,377 Climbing Oakland Center
09:46AM 35.6022 -119.7636 284° West 188 216 17,600 1,180 Climbing Oakland Center
09:47AM 35.6156 -119.8242 285° West 185 213 18,700 1,033 Climbing Oakland Center
09:48AM 35.6286 -119.8850 285° West 185 213 19,700 934 Climbing Oakland Center
09:49AM 35.6408 -119.9481 283° West 189 217 20,600 934 Climbing Oakland Center
09:50AM 35.6544 -120.0089 285° West 187 215 21,600 639 Climbing Oakland Center
09:51AM 35.6769 -120.0686 295° West 192 221 21,900 149 Climbing Oakland Center
09:52AM 35.7011 -120.1361 294° West 214 246 21,900  Level Oakland Center
09:53AM 35.7236 -120.2075 291° West 224 258 21,900  Level Oakland Center
09:54AM 35.7472 -120.2781 292° West 224 258 21,900  Level Oakland Center
09:55AM 35.7753 -120.3656 292° West 228 262 21,900  Level Oakland Center
09:56AM 35.7989 -120.4394 292° West 231 266 21,900  Level Oakland Center
09:57AM 35.8233 -120.5128 292° West 232 267 21,900  Level Oakland Center
09:58AM 35.8472 -120.5875 292° West 234 269 21,900  Level Oakland Center
09:59AM 35.8792 -120.6575 299° West 237 273 21,900  Level Oakland Center
10:00AM 35.9278 -120.7150 316° Northwest 241 277 21,900  Level Oakland Center
10:01AM 35.9725 -120.7750 313° West 241 277 21,900  Level Oakland Center
10:02AM 36.0178 -120.8333 314° West 238 274 21,900  Level Oakland Center
10:03AM 36.0636 -120.8919 314° West 238 274 21,900 49 Level Oakland Center
10:04AM 36.1103 -120.9492 315° West 237 273 22,000  Climbing Oakland Center
10:05AM 36.1653 -121.0203 314° West 238 274 21,900 -49 Descending Oakland Center
10:06AM 36.2119 -121.0797 314° West 239 275 21,900  Level Oakland Center
10:07AM 36.2583 -121.1386 314° West 239 275 21,900  Level Oakland Center
10:08AM 36.3044 -121.1981 314° West 240 276 21,900  Level Oakland Center
10:09AM 36.3514 -121.2575 314° West 241 277 21,900 -246 Level Oakland Center
10:10AM 36.3989 -121.3194 314° West 245 282 21,400 -590 Descending Oakland Center
10:11AM 36.4511 -121.3839 315° West 258 297 20,700 -689 Descending Oakland Center
10:12AM 36.5042 -121.4550 313° West 274 315 20,000 -689 Descending Oakland Center
10:13AM 36.5589 -121.5239 315° West 280 322 19,300 -683 Descending Oakland Center
10:14AM 36.6139 -121.5958 314° West 285 328 18,600 -759 Descending Oakland Center
10:15AM 36.6333 -121.6333 303° West 288 331 18,300 -676 Descending Northern Cal TRACON
10:16AM 36.6833 -121.7000 313° West 289 333 17,800 -650 Descending Northern Cal TRACON
10:17AM 36.7500 -121.7667 321° Northwest 286 329 17,000 -800 Descending Northern Cal TRACON
10:18AM 36.8000 -121.8333 313° West 292 336 16,200 -1,000 Descending Northern Cal TRACON
10:19AM 36.8500 -121.9000 313° West 293 337 15,200 -1,053 Descending Northern Cal TRACON
10:20AM 36.9000 -121.9833 307° West 292 336 14,200 -1,100 Descending Northern Cal TRACON
10:21AM 36.9833 -122.0167 342° North 296 341 13,000 -1,200 Descending Northern Cal TRACON
10:22AM 37.0500 -122.0500 338° Northwest 289 333 11,800 -1,210 Descending Northern Cal TRACON
10:23AM 37.1331 -122.0794 344° North 289 333 10,500 -1,104 Descending Oakland Center
10:24AM 37.2092 -122.1103 342° North 289 333 9,500 -1,180 Descending Oakland Center
10:25AM 37.2836 -122.1403 342° North 282 325 8,100 -1,377 Descending Oakland Center
10:26AM 37.3586 -122.1728 341° North 284 327 6,700 -1,279 Descending Oakland Center
10:27AM 37.4269 -122.1483 16° North 260 299 5,500 -984 Descending Oakland Center
10:28AM 37.4831 -122.1469 North 242 278 4,700 -836 Descending Oakland Center
10:29AM 37.5178 -122.1842 320° Northwest 198 228 3,800 -885 Descending Oakland Center